星链-1732 (STARLINK-1732 )

导读

STARLINK-1732是美国SpaceX星链星座中的一颗卫星,于2020年10月6日发射入轨,属于星链低轨互联网星座的组网卫星之一。星链系统旨在为全球提供高速低延迟互联网覆盖,该卫星承担着为全球偏远地区、移动场景提供宽带服务的组网任务,依托低轨轨道部署,助力SpaceX构建全球卫星互联网通信网络。

基本信息
目录编号:
46584
目录名称:
STARLINK-1732
国际标识:
2020-070BE
轨道中心:
EARTH
卫星名称:
星链-1732
卫星全名:
星链-1732 (STARLINK-1732 )
卫星状态:
已陨落 最后检测时间 2025-02-26
发射日期:
2020-10-06 UTC
国别 :
美国 (US)
星等 :
--
轨道信息
数据来源 国际轨道数据
星历时间: 2025-02-26T16:12:20+0800
轨道信息已过期477天
半长轴: 6532.364km
偏心率: 0.0000359
轨道倾角: 53.016°
近地点辐角 79.449°
升交点赤经 356.994°
平近点角 12.794°
近地点: 153.994km
远地点: 154.464km
周期: 87.572分钟
每日圈数: 16.443612
详细信息
固有亮度:
5
最大亮度:
2.5
卫星平台:
Starlink V1.0
覆盖范围:
全球
运营商:
太空探索技术公司
运营商所在国:
美国
制造商(研发单位):
太空探索技术公司
制造商所在国:
美国
使用方式:
暂无
卫星简介
星链(Starlink)计划是由太空探索技术公司(SpaceX)提出的一个巨型低轨卫星互联网星座项目,计划在2019年至2024年间在太空搭建由约1.2万颗卫星组成的“星链”网络,其中1584颗将部署在地球上空550千米处的近地轨道,并从2020年开始工作。该卫星仍在工作。